Location: Altamira
(10.5079°N, 66.8544°W)
Time: 16:19:11
(UTC+00:00)

NOSS 3-1 (C) - Pass Details

Date: 13 December 2025
Orbit: 618 x 1583 km, 63.4° (Epoch: 10 January)

Event Time Altitude Azimuth Distance (km) Brightness Sun altitude
Rises 22:27:23 0° 195° (SSW) 2,992 6.7 -5.4°
Reaches altitude 10° 22:29:46 10° 190° (S) 2,022 5.7 -5.9°
Maximum altitude 22:34:06 54° 113° (ESE) 751 2.8 -6.9°
Drops below altitude 10° 22:38:23 10° 36° (NE) 2,003 4.7 -7.9°
Enters shadow 22:39:31 - 33° (NNE) 2,462 5.1 -8.1°
